Hourly Weather Klecie

Today, 27 July, Tuesday

Time Temperature Precipitation Wind Pressure Humidity
00:00 +20°C° 0.2 mm 2 mps 740 mmHg 86%
01:00 +20°C° 0.2 mm 2 mps 740 mmHg 88%
02:00 +19°C° 0 mm 2 mps 740 mmHg 88%
03:00 +19°C° 0 mm 2 mps 740 mmHg 88%
04:00 +18°C° 0 mm 2 mps 740 mmHg 89%
05:00 +20°C° 0 mm 3 mps 740 mmHg 84%
06:00 +22°C° 0 mm 3 mps 740 mmHg 79%
07:00 +24°C° 0 mm 3 mps 740 mmHg 74%
08:00 +26°C° 0 mm 3 mps 741 mmHg 68%
09:00 +28°C° 0 mm 3 mps 741 mmHg 62%
10:00 +29°C° 0 mm 4 mps 741 mmHg 56%
11:00 +30°C° 0.1 mm 3 mps 741 mmHg 56%
12:00 +30°C° 0.1 mm 3 mps 741 mmHg 55%
13:00 +30°C° 0.1 mm 3 mps 741 mmHg 54%
14:00 +30°C° 0.1 mm 3 mps 741 mmHg 56%
15:00 +30°C° 0.1 mm 3 mps 741 mmHg 58%
16:00 +30°C° 0.1 mm 3 mps 741 mmHg 59%
17:00 +28°C° 1.1 mm 3 mps 741 mmHg 68%
18:00 +26°C° 1.1 mm 2 mps 741 mmHg 76%
19:00 +24°C° 1.1 mm 2 mps 741 mmHg 84%
20:00 +23°C° 0 mm 2 mps 741 mmHg 85%
21:00 +22°C° 0 mm 1 mps 741 mmHg 86%
22:00 +22°C° 0 mm 1 mps 741 mmHg 87%
23:00 +21°C° 0 mm 1 mps 741 mmHg 87%

Tomorrow, 28 July, Wednesday

Time Temperature Precipitation Wind Pressure Humidity
00:00 +21°C° 0 mm 1 mps 741 mmHg 87%
01:00 +21°C° 0 mm 1 mps 741 mmHg 88%
02:00 +20°C° 0.1 mm 1 mps 741 mmHg 88%
03:00 +19°C° 0.1 mm 2 mps 740 mmHg 89%
04:00 +19°C° 0.1 mm 2 mps 740 mmHg 90%
05:00 +20°C° 0 mm 2 mps 740 mmHg 85%
06:00 +23°C° 0 mm 2 mps 740 mmHg 81%
07:00 +25°C° 0 mm 2 mps 740 mmHg 76%
08:00 +27°C° 0 mm 3 mps 739 mmHg 68%
09:00 +29°C° 0 mm 4 mps 739 mmHg 60%
10:00 +32°C° 0 mm 5 mps 739 mmHg 53%
11:00 +32°C° 0 mm 5 mps 739 mmHg 49%
12:00 +33°C° 0 mm 5 mps 739 mmHg 45%
13:00 +34°C° 0 mm 5 mps 738 mmHg 41%
14:00 +32°C° 0.1 mm 5 mps 738 mmHg 50%
15:00 +29°C° 0.1 mm 4 mps 738 mmHg 60%
16:00 +27°C° 0.1 mm 4 mps 738 mmHg 69%
17:00 +26°C° 0.1 mm 4 mps 738 mmHg 73%
18:00 +25°C° 0.1 mm 4 mps 739 mmHg 77%
19:00 +23°C° 0.1 mm 4 mps 739 mmHg 81%
20:00 +22°C° 0 mm 4 mps 739 mmHg 86%
21:00 +21°C° 0 mm 3 mps 740 mmHg 91%
22:00 +20°C° 0 mm 3 mps 740 mmHg 96%
23:00 +20°C° 0 mm 3 mps 740 mmHg 96%

Day after tomorrow, 29 July, Thursday

Time Temperature Precipitation Wind Pressure Humidity
00:00 +19°C° 0 mm 2 mps 740 mmHg 97%
01:00 +19°C° 0 mm 2 mps 740 mmHg 97%
02:00 +19°C° 0 mm 1 mps 741 mmHg 97%
03:00 +19°C° 0 mm 1 mps 741 mmHg 97%
04:00 +19°C° 0 mm 1 mps 741 mmHg 96%
05:00 +20°C° 0 mm 1 mps 741 mmHg 92%
06:00 +20°C° 0 mm 2 mps 741 mmHg 88%
07:00 +23°C° 0 mm 2 mps 741 mmHg 84%
08:00 +24°C° 0 mm 2 mps 741 mmHg 77%
09:00 +25°C° 0 mm 2 mps 741 mmHg 70%
10:00 +27°C° 0 mm 2 mps 741 mmHg 63%
11:00 +27°C° 0.1 mm 2 mps 741 mmHg 60%
12:00 +28°C° 0.1 mm 2 mps 741 mmHg 57%
13:00 +29°C° 0.1 mm 2 mps 741 mmHg 54%
14:00 +29°C° 0 mm 2 mps 741 mmHg 53%
15:00 +29°C° 0 mm 2 mps 740 mmHg 52%
16:00 +29°C° 0 mm 2 mps 740 mmHg 51%
17:00 +28°C° 0 mm 2 mps 740 mmHg 57%
18:00 +26°C° 0 mm 1 mps 740 mmHg 63%
19:00 +24°C° 0 mm 1 mps 740 mmHg 69%
20:00 +23°C° 0 mm 1 mps 740 mmHg 72%
21:00 +22°C° 0 mm 1 mps 740 mmHg 74%
22:00 +22°C° 0 mm 1 mps 740 mmHg 77%
23:00 +21°C° 0 mm 1 mps 740 mmHg 79%

30 July, Friday

Time Temperature Precipitation Wind Pressure Humidity
00:00 +21°C° 0 mm 1 mps 740 mmHg 81%
01:00 +20°C° 0 mm 1 mps 740 mmHg 84%
02:00 +20°C° 0 mm 1 mps 739 mmHg 85%
03:00 +20°C° 0 mm 1 mps 739 mmHg 86%
04:00 +19°C° 0 mm 2 mps 739 mmHg 87%
05:00 +20°C° 0 mm 2 mps 739 mmHg 81%
06:00 +23°C° 0 mm 2 mps 739 mmHg 75%
07:00 +25°C° 0 mm 2 mps 739 mmHg 68%
08:00 +27°C° 0 mm 2 mps 739 mmHg 61%
09:00 +29°C° 0 mm 3 mps 738 mmHg 55%
10:00 +31°C° 0 mm 3 mps 738 mmHg 48%
11:00 +31°C° 0 mm 3 mps 738 mmHg 48%
12:00 +31°C° 0 mm 3 mps 737 mmHg 48%
13:00 +31°C° 0 mm 3 mps 737 mmHg 48%
14:00 +29°C° 0.6 mm 3 mps 737 mmHg 56%
15:00 +27°C° 0.6 mm 3 mps 737 mmHg 65%
16:00 +25°C° 0.6 mm 3 mps 736 mmHg 73%
17:00 +24°C° 1.4 mm 2 mps 737 mmHg 79%
18:00 +23°C° 1.4 mm 2 mps 737 mmHg 85%
19:00 +22°C° 1.4 mm 1 mps 737 mmHg 91%
20:00 +20°C° 0.5 mm 2 mps 737 mmHg 91%
21:00 +20°C° 0.5 mm 2 mps 738 mmHg 91%
22:00 +20°C° 0.5 mm 2 mps 738 mmHg 91%
23:00 +19°C° 0 mm 2 mps 738 mmHg 91%

31 July, Saturday

Time Temperature Precipitation Wind Pressure Humidity
00:00 +19°C° 0 mm 2 mps 738 mmHg 91%
01:00 +18°C° 0 mm 2 mps 738 mmHg 91%
02:00 +19°C° 0 mm 1 mps 738 mmHg 91%
03:00 +18°C° 0 mm 1 mps 739 mmHg 90%
04:00 +16°C° 0 mm 1 mps 739 mmHg 89%
05:00 +19°C° 0 mm 1 mps 739 mmHg 84%
06:00 +20°C° 0 mm 1 mps 739 mmHg 79%
07:00 +21°C° 0 mm 1 mps 739 mmHg 74%
08:00 +23°C° 0 mm 1 mps 739 mmHg 66%
09:00 +25°C° 0 mm 1 mps 739 mmHg 59%
10:00 +26°C° 0 mm 1 mps 739 mmHg 52%
11:00 +27°C° 0 mm 1 mps 739 mmHg 49%
12:00 +28°C° 0 mm 1 mps 739 mmHg 47%
13:00 +29°C° 0 mm 2 mps 739 mmHg 44%
14:00 +29°C° 0 mm 2 mps 738 mmHg 46%
15:00 +29°C° 0 mm 2 mps 738 mmHg 48%
16:00 +29°C° 0 mm 2 mps 738 mmHg 49%
17:00 +27°C° 0 mm 1 mps 738 mmHg 56%
18:00 +25°C° 0 mm 1 mps 738 mmHg 62%
19:00 +24°C° 0 mm 1 mps 738 mmHg 68%
20:00 +23°C° 0.1 mm 1 mps 738 mmHg 71%
21:00 +22°C° 0.1 mm 1 mps 738 mmHg 74%
22:00 +21°C° 0.1 mm 1 mps 738 mmHg 77%
23:00 +21°C° 0 mm 1 mps 737 mmHg 79%

1 August, Sunday

Time Temperature Precipitation Wind Pressure Humidity
00:00 +20°C° 0 mm 1 mps 737 mmHg 81%
01:00 +20°C° 0 mm 1 mps 737 mmHg 83%
02:00 +20°C° 0 mm 1 mps 737 mmHg 83%
03:00 +19°C° 0 mm 2 mps 736 mmHg 84%
04:00 +19°C° 0 mm 2 mps 736 mmHg 84%
05:00 +20°C° 0 mm 2 mps 735 mmHg 82%
06:00 +21°C° 0 mm 3 mps 735 mmHg 80%
07:00 +22°C° 0 mm 3 mps 735 mmHg 79%
08:00 +25°C° 0 mm 5 mps 734 mmHg 70%
09:00 +27°C° 0 mm 6 mps 734 mmHg 62%
10:00 +29°C° 0 mm 7 mps 734 mmHg 53%
11:00 +32°C° 0 mm 7 mps 734 mmHg 50%
12:00 +33°C° 0 mm 7 mps 733 mmHg 46%
13:00 +34°C° 0 mm 7 mps 733 mmHg 43%
14:00 +34°C° 0 mm 6 mps 733 mmHg 45%
15:00 +33°C° 0 mm 5 mps 732 mmHg 47%
16:00 +33°C° 0 mm 4 mps 732 mmHg 49%
17:00 +29°C° 0.3 mm 4 mps 733 mmHg 62%
18:00 +25°C° 0.3 mm 5 mps 733 mmHg 75%
19:00 +21°C° 0.3 mm 5 mps 733 mmHg 88%
20:00 +20°C° 4.5 mm 4 mps 733 mmHg 91%
21:00 +20°C° 4.5 mm 4 mps 734 mmHg 94%
22:00 +19°C° 4.5 mm 3 mps 734 mmHg 97%
23:00 +18°C° 2.1 mm 3 mps 734 mmHg 97%
Show more